This is the latest recevied weather packets stored in our database for station/object KB7STN. If no packets are shown the sender has not sent any weather packets the latest 10 day(s).
| Time | Temp. | Humidity | Pressure | Rain* | Wind** | Luminosity | Snow |
|---|---|---|---|---|---|---|---|
| 1777587148 | 15.56° C | 32% | 1010.6 hPa | 0 mm | - | - | - |
| 1777586848 | 15.56° C | 30% | 1010.5 hPa | 0 mm | - | - | - |
| 1777586548 | 16.11° C | 29% | 1010.7 hPa | 0 mm | - | - | - |
| 1777586248 | 16.11° C | 27% | 1010.8 hPa | 0 mm | - | - | - |
| 1777585948 | 16.11° C | 27% | 1010.8 hPa | 0 mm | - | - | - |
| 1777585648 | 15.56° C | 31% | 1010.8 hPa | 0 mm | - | - | - |
| 1777585348 | 15.56° C | 26% | 1010.9 hPa | 0 mm | - | - | - |
| 1777585049 | 15.56° C | 30% | 1010.9 hPa | 0 mm | - | - | - |
| 1777584749 | 15.56° C | 27% | 1011 hPa | 0 mm | - | - | - |
| 1777584448 | 15.56° C | 25% | 1011.1 hPa | 0 mm | - | - | - |
| 1777584148 | 15.56° C | 27% | 1011 hPa | 0 mm | - | - | - |
| 1777583849 | 15.56° C | 27% | 1011.1 hPa | 0 mm | - | - | - |
| 1777583549 | 15.56° C | 27% | 1011.1 hPa | 0 mm | - | - | - |
| 1777583248 | 15.56° C | 25% | 1011.2 hPa | 0 mm | - | - | - |
| 1777582948 | 15.56° C | 24% | 1011.1 hPa | 0 mm | - | - | - |
| 1777582649 | 15.56° C | 27% | 1011.2 hPa | 0 mm | - | - | - |
| 1777582349 | 15.56° C | 26% | 1011.2 hPa | 0 mm | - | - | - |
| 1777582049 | 16.11° C | 24% | 1011.2 hPa | 0 mm | - | - | - |
| 1777581749 | 16.11° C | 25% | 1011.2 hPa | 0 mm | - | - | - |
| 1777581449 | 15.56° C | 26% | 1011.3 hPa | 0 mm | - | - | - |
| 1777581148 | 15.56° C | 25% | 1011.2 hPa | 0 mm | - | - | - |
| 1777580848 | 15.56° C | 25% | 1011.3 hPa | 0 mm | - | - | - |
| 1777580549 | 15.56° C | 27% | 1011.2 hPa | 0 mm | - | - | - |
| 1777580249 | 15.56° C | 25% | 1011.3 hPa | 0 mm | - | - | - |
| 1777579948 | 15° C | 24% | 1011.3 hPa | 0 mm | - | - | - |
* Rain latest hour (hover to see other rain measurements)
** Current wind speed in m/s (hover to see current wind gust speed)